Regional Weather Roundup
Issued by NWS

Current Version | Previous Version | Text Only | Print | Product List | Glossary On
Versions: 1 2 3 4 5 6 7 8 9 10 11 12 13 14 15 16 17 18 19 20 21 22 23 24 25 26 27 28 29 30 31 32 33 34 35 36 37 38 39 40 41 42 43 44 45 46 47 48 49 50
000
ASUS44 KBMX 261610
RWRAL

ALABAMA REGIONAL WEATHER ROUNDUP
NATIONAL WEATHER SERVICE BIRMINGHAM AL
1000 AM CST WED NOV 26 2014

NOTE: "FAIR" INDICATES FEW OR NO CLOUDS BELOW 12,000 FEET
WITH NO SIGNIFICANT WEATHER AND/OR OBSTRUCTIONS TO VISIBILITY.

THE REMARK "TC" DENOTES TEMPERATURE IN DEGREES CELSIUS.

ALZ001>011-014-016>018-020-261700-
NORTH ALABAMA

CITY           SKY/WX    TMP DP  RH WIND       PRES   REMARKS
MUSCLE SHOALS    N/A     42  29  59 S3        30.18S
HUNTSVILLE     MOSUNNY   46  29  51 CALM      30.18R
DECATUR        SUNNY     45  29  53 CALM      30.18S
HALEYVILLE     FAIR      44  27  51 CALM      30.19R
GADSDEN        SUNNY     46  27  46 N6        30.17F
$$

ALZ012-013-022-023-030>036-040>044-261700-
WEST CENTRAL ALABAMA

CITY           SKY/WX    TMP DP  RH WIND       PRES   REMARKS
TUSCALOOSA     SUNNY     45  30  55 S3        30.23S
$$

ALZ015-024>027-033>036-040>044-261700-
CENTRAL ALABAMA

CITY           SKY/WX    TMP DP  RH WIND       PRES   REMARKS
BIRMINGHAM     SUNNY     47  27  45 CALM      30.20S
MONTGOMERY     SUNNY     50  27  40 NW8       30.22S
SHELBY CO ARPT SUNNY     49  28  44 NW5       30.20R
MAXWELL AFB    SUNNY     50  28  42 NW6       30.21S
GREENVILLE     FAIR      52  23  32 W8        30.22R
$$

ALZ019-021-028-029-037-038-045>048-261700-
EAST CENTRAL ALABAMA

CITY           SKY/WX    TMP DP  RH WIND       PRES   REMARKS
ANNISTON       SUNNY     47  28  47 S5        30.17F
ALEXANDER CITY SUNNY     54  19  25 NW10      30.17F
AUBURN         SUNNY     48  23  37 NW13      30.20R
$$

ALZ051>064-261700-
SOUTHWEST ALABAMA

CITY           SKY/WX    TMP DP  RH WIND       PRES   REMARKS
MOBILE         SUNNY     52  22  30 W6        30.27S
BROOKLEY FIELD SUNNY     54  24  31 VRB6      30.29R
EVERGREEN      SUNNY     53  26  35 N6        30.25R
$$

ALZ049-050-065>069-261700-
SOUTHEAST ALABAMA

CITY           SKY/WX    TMP DP  RH WIND       PRES   REMARKS
DOTHAN         SUNNY     51  33  50 NW10      30.23R
OZARK          SUNNY     51  29  43 W10       30.21R
TROY           SUNNY     52  25  35 NW10      30.21R
EUFAULA        FAIR      54  32  43 NW8       30.17S
$$


USA.gov is the U.S. government's official web portal to all federal, state and local government web resources and services.